STARLINK-34821, 65199

Orbit data source: Space-Track

STARLINK-34821, 65199 is a payload satellite owned by SpaceX/Seattle (US) in LEO that was launched on Thu, 14 Aug 2025 UTC via an FALCON 9 launch vehicle from the Air Force Eastern Test Range (AFETR). Payload-class satellites include a variety of spacecraft equipped with specific instruments for various scientific and technological missions. These include communications satellites like Starlink; space stations such as the ISS; scientific satellites like the Hubble; Earth observation satellites from companies like Planet Labs, Umbra, and HawkEye 360; GPS; miniature CubeSats for education and research; and military/defense satellites.

Loading next visibility...
Identifier
65199, 2025-176B
Orbit
LEO
Country
Flag of USUS
Related business
Manufacturer
SpaceX/Seattle
Mission
Operational Commercial Communications
Bus & Motor
STARLINK V2MO, Unknown motor
Mass
575 kg wet, ~530 kg dry
Launch date (UTC)
2025-08-14 (10 months ago)
Launch vehicle
FALCON 9
Launch site
Air Force Eastern Test Range (AFETR)
Object type
Payload
Rocket body
Debris
Shape & HBR
Box + 2 Pan, 17.7 m
Radar Cross Section
36.964 m², Large (>1 m²)

Expand to show TLE details & history
Last TLE update: 23 hours ago

TLE from 23 hours ago
0 STARLINK-34821
1 65199U 25176B   26171.03476174  .00025671  00000-0  76815-3 0  9991
2 65199  53.1590  35.6715 0001012  85.0417 275.0701 15.34406985 48741
Epoch: 2026-06-20T00:50Z
TLE epoch observation values (Epoch: 2026-06-20T00:50:03.414Z)
Latitude
-0.00002°
Longitude
114.90208°
Altitude
463.523 km
Speed
7.636 km/s
True Right ascension
02h 22m 41s
True Declination
0° 00' 00"
Sunlit
Object was in daylight at epoch
Visualization orbit readout
Latitude
Unknown
Longitude
Unknown
Altitude
Unknown
Speed
Unknown
Apparent Right ascension
Unknown
Apparent Declination
Unknown
Sunlit
N/A
Visualization observer readout
Local Sidereal Time
10:18:31
Azimuth
Unknown
Elevation
Unknown
Doppler factor
Unknown
Orbital elements
Apogee altitude
463.632 km
Perigee altitude
462.247 km
Semi-major axis
6,841.077 km
Eccentricity
0.0001
Inclination
53.159°
RAAN
35.6715°
Arg. of periapsis
85.0417°
True anomaly
275.05855°
Mean anomaly
275.0701°
Eccentric anomaly
275.06432°
Mean motion
3.8358 °/min
Orbital period
93.85 mins
BSTAR
0.00076815
Loading maneuver chart data...
Computing Atmospheric mass density...
Loading historical data...
Loading historical data...
Loading historical data...
Loading historical data...
Loading historical data...
Loading historical data...
Loading historical data...

Documentation

Showing up to 5 results
|